Location: Chanchkharo
(42.0786°N, 44.3972°E)
Time: 15:43:35
(UTC+00:00)

Daily predictions for brighter satellites

Satellite Brightness Start Highest point End
(mag) Time Altitude Azimuth Time Altitude Azimuth Time Altitude Azimuth
BREEZE M DEB (TANK) 4.0 16:43:00 10° NW 16:45:55 36° NNE 16:53:19 10° E
CSL-04 Rocket 3.8 16:47:48 10° S 16:53:06 78° WSW 16:58:30 10° NNW
Cosmos 1666 4.3 16:52:34 10° NNW 16:56:04 36° W 16:59:33 10° SSW
Cosmos 1743 4.2 16:53:47 10° NNE 16:56:42 21° ENE 16:59:36 10° SE
Cosmos 2227 Rocket 2.4 16:51:09 10° NNW 16:56:47 60° ENE 17:02:22 10° SE
BREEZE-M DEB (TANK) 4.2 16:54:46 10° W 16:57:38 49° N 17:05:21 10° ENE
Resurs 01 Rocket 2.4 16:55:09 10° SE 16:59:08 35° ENE 17:03:10 10° N
Cosmos 1515 Rocket 4.3 16:57:52 10° SSE 17:01:46 33° E 17:05:43 10° NNE
Landsat 7 3.9 16:57:37 10° SSE 17:02:15 62° ENE 17:06:55 10° N
Cosmos 1980 Rocket 2.9 16:58:59 10° SSE 17:03:51 31° ESE 17:08:47 10° NE
ATLAS 2AS CENTAUR R/B 3.6 16:57:54 10° S 17:04:36 32° ESE 17:11:12 10° NE
NOSS 3-4 (A) 3.4 17:03:33 10° SW 17:09:13 86° NW 17:15:19 10° NE
NOSS 3-4 (C) 3.4 17:03:35 10° SW 17:09:16 87° NW 17:15:24 10° NE
Okean-O 3.8 17:06:44 10° S 17:10:57 43° W 17:15:10 10° NNW
PSLV R/B 3.9 17:07:31 10° NNE 17:11:30 58° E 17:15:28 10° S
IGS 5A 3.7 17:07:54 10° S 17:12:02 75° WSW 17:16:12 10° NNW
BREEZE-M DEB (TANK) 4.2 17:06:54 10° SW 17:12:02 81° SE 17:27:39 10° ENE
Cosmos 2369 4.0 17:07:47 10° S 17:13:05 44° ESE 17:18:25 10° NE
ARGOS Delta rocket 4.3 17:13:32 10° NNE 17:18:57 56° E 17:24:12 10° S
MOS 1 4.3 17:15:44 10° SSE 17:21:20 73° ENE 17:27:00 10° N
Cosmos 1697 Rocket 2.7 17:16:53 10° SSW 17:22:34 90° NNW 17:28:16 10° NNE
Cosmos 1486 Rocket 4.0 17:17:29 10° SSW 17:22:46 79° ESE 17:28:04 10° NNE
Cosmos 2360 4.3 17:22:07 10° SSW 17:27:47 87° WNW 17:33:31 10° NNE
Cosmos 1536 2.9 17:27:07 10° N 17:31:07 65° E 17:34:48 12° SSE
ATLAS 3B R/B 4.4 17:25:22 10° NNW 17:31:14 25° NNE 17:37:15 10° E
ISS -1.5 17:29:14 10° NW 17:31:53 21° NNE 17:34:30 10° ENE
Okean 1 4.3 17:29:08 14° SE 17:31:54 28° E 17:35:22 10° NNE
BREEZE-M DEB (TANK) 3.8 17:31:19 10° NW 17:33:03 18° N 17:35:04 10° ENE
Cosmos 2297 Rocket 3.1 17:28:09 10° NW 17:33:32 46° WSW 17:38:53 10° S
H-2A R/B 2.5 17:29:42 10° N 17:33:44 60° WNW 17:37:47 10° SSW
MetOp-B 4.4 17:29:52 12° SE 17:34:36 53° ENE 17:39:49 10° N
RESURS DK-1 3.2 17:31:13 10° SSE 17:34:46 29° ESE 17:38:20 10° NE
EXPRESS MD2 3.7 17:28:56 10° WNW 17:35:15 70° NNE 17:37:56 16° ESE
Cosmos 1072 Rocket 4.4 17:31:33 10° S 17:37:38 77° E 17:43:45 10° N
SL-4 R/B 2.2 17:33:28 10° WNW 17:38:05 83° SW 17:41:15 18° SE
Timation 2 Rocket 4.4 17:35:20 10° NNW 17:41:50 57° ENE 17:47:08 17° SE
SL-16 R/B 3.5 17:49:55 18° ESE 17:51:37 20° E 17:55:38 10° NE
Cosmos 1503 Rocket 4.0 17:46:46 10° SSW 17:52:01 84° ESE 17:57:23 10° NNE
SL-12 R/B (Aux Motor) 3.2 17:52:16 10° SW 17:54:47 57° SSE 17:55:07 46° ESE
ERS-1 Rocket 3.9 17:52:34 19° ESE 17:55:31 34° ENE 18:00:02 10° N
Cosmos 1184 Rocket 3.2 17:54:58 10° SSW 17:57:56 57° WNW 18:00:54 10° N
Cosmos 1975 4.2 17:57:28 10° NNE 18:00:50 25° ENE 18:02:11 21° ESE
Meteor 1-27 Rocket 4.4 17:58:01 10° SSW 18:03:42 60° WNW 18:09:32 10° N
SPOT 1/Viking Rocket 3.9 17:59:02 12° S 18:03:45 64° WSW 18:08:53 10° NNW
Cosmos 1933 Rocket 3.8 18:01:00 10° NNW 18:05:28 71° W 18:08:51 17° S
Cosmos 2034 Rocket 4.0 17:59:47 10° S 18:06:04 82° E 18:12:26 10° N
Cosmos 389 Rocket 3.1 18:03:07 10° NNW 18:06:33 52° W 18:08:54 18° SSW
Helios 1A Rocket 3.0 18:06:45 28° SE 18:08:38 56° ENE 18:12:34 10° N
CZ-2C R/B 4.3 18:04:40 10° NNE 18:09:10 40° E 18:11:18 26° SSE
Cosmos 2292 Rocket 3.7 18:09:08 10° NNE 18:11:45 28° ENE 18:11:56 27° E
Cosmos 2278 3.6 18:06:09 10° SSW 18:11:45 71° ESE 18:17:25 10° NNE
NOSS 2-1 (C) 3.8 18:12:34 28° E 18:12:34 28° E 18:14:45 10° NE
Cosmos 2219 4.3 18:07:23 10° NW 18:12:31 37° WSW 18:17:17 11° S
CZ-4B R/B 3.8 18:10:44 10° NNW 18:13:17 22° WNW 18:15:47 10° WSW
SJ 16-02 1.3 18:11:54 10° SSW 18:16:16 84° WNW 18:20:39 10° NNE
Cosmos 2360 Rocket 3.9 18:17:17 14° E 18:17:17 14° E 18:19:56 10° ENE
Cosmos 2082 3.9 18:13:59 10° NNW 18:19:34 65° WSW 18:23:06 23° S
NOSS 2-1 (D) 3.3 18:22:47 39° E 18:22:47 39° E 18:25:20 10° NE
Cosmos 2263 Rocket 2.2 18:17:24 10° NNW 18:22:58 68° ENE 18:25:47 30° SE
Ariane Rocket 3.9 18:19:53 13° SSW 18:24:07 43° W 18:28:57 10° NNW
Cosmos 2344 3.9 18:19:50 10° SW 18:27:18 64° NW 18:34:54 10° NNE
USA 215 4.2 18:24:04 10° ENE 18:29:08 25° ESE 18:29:08 25° ESE
SPOT 5 3.0 18:27:18 29° SSE 18:30:04 81° ENE 18:35:14 10° N
ASTRO F (AKARI) 4.3 18:31:17 53° E 18:31:28 55° ENE 18:34:33 10° N
Terra 2.0 18:30:11 34° SE 18:32:02 57° ENE 18:36:42 10° N
OAO 3 Rocket 4.3 18:28:13 10° WSW 18:32:18 26° SSW 18:32:44 26° S
Resurs 01 Rocket 3.7 18:32:20 10° SW 18:35:43 21° W 18:39:06 10° NW
Cosmos 2195 Rocket 4.5 18:29:30 10° N 18:35:53 81° E 18:39:22 29° SSE
Cosmos 2227 Rocket 4.3 18:36:22 10° NW 18:40:17 19° W 18:44:12 10° SW
Cosmos 1346 Rocket 2.9 18:39:36 49° SE 18:40:17 58° E 18:44:16 10° NNE
Cosmos 1441 Rocket 4.4 18:41:10 26° ENE 18:41:10 26° ENE 18:43:50 10° NNE
Cosmos 1428 Rocket 4.5 18:37:23 10° N 18:43:44 86° E 18:47:00 31° S
Cosmos 921 Rocket 4.4 18:42:34 10° NW 18:46:39 34° W 18:48:50 22° SSW
Cosmos 1980 Rocket 3.6 18:42:30 10° SW 18:47:43 38° WNW 18:53:00 10° N
Geosat FO 4.4 18:47:39 63° SSW 18:48:00 70° WSW 18:51:20 10° NNW
SL-24 R/B - RUBIN 2 3.7 18:48:16 10° NNW 18:52:40 66° NE 18:53:49 46° ESE
Cosmos 2228 Rocket 4.1 18:51:35 18° SW 18:54:43 46° WNW 18:59:07 10° N
ATLAS 2AS CENTAUR R/B 3.4 18:47:29 10° SW 18:55:13 62° NW 19:02:44 10° NNE
Iridium 2 4.5 18:51:45 10° NNE 18:55:05 37° ENE 18:55:05 37° ENE
Cosmos 2322 Rocket 2.4 18:54:33 41° SSE 18:55:54 49° ESE 19:01:18 10° NE
Spot 2 Rocket 4.0 18:55:31 30° SSW 18:57:46 53° W 19:02:42 10° NNW
Cosmos 2333 Rocket 3.8 19:01:21 18° E 19:01:21 18° E 19:04:29 10° ENE
Cosmos 1378 4.1 19:00:07 30° SW 19:01:22 42° WNW 19:04:52 10° N
Meteor 2-4 Rocket 3.9 18:58:20 25° SSW 19:01:49 74° W 19:07:29 10° N
Cosmos 1844 Rocket 3.9 18:57:33 10° N 19:02:30 31° NE 19:04:39 24° E
Okean 1-7 4.4 19:03:49 25° E 19:03:49 25° E 19:07:00 10° NNE
Cosmos 1092 Rocket 4.2 18:58:13 10° NNW 19:04:18 63° W 19:07:25 29° SSW
ISS -3.3 19:05:41 10° NW 19:08:33 61° NW 19:08:33 61° NW
Cosmos 1634 Rocket 4.2 19:05:21 25° SSW 19:09:09 69° W 19:15:19 10° N
Cosmos 2142 Rocket 4.5 19:11:09 37° S 19:13:53 85° E 19:20:19 10° N
SL-4 R/B 4.3 19:14:39 10° W 19:16:42 14° WSW 19:16:42 14° WSW
ARIANE 5 R/B 2.9 19:16:07 50° SSW 19:16:58 61° W 19:21:26 10° NNW
Cosmos 1805 3.7 19:14:35 10° N 19:18:07 50° ENE 19:18:07 50° ENE
Meteor 2-15 Rocket 4.3 19:16:03 40° S 19:18:27 90° W 19:24:34 10° N
Cosmos 1707 Rocket 4.4 19:17:07 31° SW 19:18:46 46° WNW 19:23:03 10° N
Cosmos 2219 Rocket 3.7 19:21:25 20° E 19:21:25 20° E 19:24:34 10° NE
NOSS 2-1 (E) 4.0 19:21:03 37° WNW 19:21:36 40° NW 19:24:40 10° NNE
Cosmos 44 Rocket 3.3 19:17:40 10° NW 19:22:17 58° WSW 19:22:46 55° SW
ATLAS 3B R/B 2.9 19:15:36 10° NW 19:23:03 83° NE 19:26:10 40° SE
ATLAS CENTAUR R/B 3.5 19:19:58 10° NNW 19:23:54 24° NE 19:25:51 19° ENE
Cosmos 2227 4.5 19:18:49 10° NNW 19:24:29 60° WSW 19:26:02 44° SSW
Cosmos 1733 3.4 19:28:26 10° N 19:31:41 63° NNE 19:31:41 63° NNE
Cosmos 1655 Rocket 4.2 19:26:40 10° N 19:32:48 55° ENE 19:34:17 45° SE
Cosmos 1766 4.2 19:29:39 10° N 19:32:50 37° ENE 19:32:50 37° ENE
Cosmos 1703 Rocket 4.0 19:34:00 48° ENE 19:34:00 48° ENE 19:37:55 10° NNE
ERS-1 Rocket 4.4 19:32:33 23° SW 19:34:18 29° W 19:38:39 10° NW
SL-16 R/B 2.7 19:31:42 23° SW 19:35:13 58° WNW 19:40:50 10° NNE
Cosmos 2237 4.2 19:34:31 42° SSW 19:36:32 83° WNW 19:42:17 10° NNE
CZ-4C R/B 4.3 19:30:43 10° NNW 19:36:54 31° NE 19:44:00 10° E
Gblst 52 Del rocket 4.3 19:30:36 10° SW 19:37:21 88° NNW 19:43:16 10° NE
Meteor 2-10 3.8 19:41:02 10° N 19:46:18 82° E 19:46:48 72° SE
Meteor 1-4 Rocket 3.5 19:43:00 10° NNW 19:45:36 44° NW 19:45:36 44° NW
Geosat 4.0 19:48:25 63° SSW 19:48:52 67° WSW 19:53:54 10° NNW
Cosmos 1733 Rocket 4.3 19:46:07 10° NNW 19:50:07 33° W 19:50:39 31° WSW
Cosmos 1782 Rocket 4.2 19:46:40 10° N 19:50:31 43° ENE 19:50:31 43° ENE
COSMOS 2428 4.0 19:53:57 26° E 19:53:57 26° E 19:57:58 10° NE
Meteor 1-15 Rocket 4.2 19:48:56 10° N 19:54:36 71° E 19:55:26 61° SE
ERS-2 4.1 19:56:29 10° NNE 19:58:05 21° NE 19:58:05 21° NE
Cosmos 2360 Rocket 2.2 19:59:00 54° SW 20:00:18 79° WNW 20:05:59 10° NNE
Cosmos 923 Rocket 3.9 19:56:04 10° NNW 20:01:25 74° WSW 20:01:50 69° SSW
Cosmos 1908 Rocket 3.7 19:57:29 10° NNW 20:01:28 68° WNW 20:01:28 68° WNW
Cosmos 1937 Rocket 3.3 20:02:32 79° SSE 20:02:48 83° ESE 20:08:06 10° NNE
Cosmos 2333 4.0 20:05:14 68° SE 20:05:29 69° ESE 20:11:06 10° NNE
Cosmos 2266 Rocket 3.9 19:59:18 10° N 20:05:34 81° W 20:06:45 60° S
Cosmos 2242 Rocket 3.7 20:06:29 77° NNE 20:06:29 77° NNE 20:10:44 10° N
Cosmos 2263 Rocket 4.1 20:02:52 10° WNW 20:06:14 17° W 20:07:29 15° WSW
ALOS 2 3.2 20:07:13 46° ENE 20:07:13 46° ENE 20:11:13 10° N
Cosmos 1470 4.1 20:05:46 10° N 20:08:30 33° NE 20:08:30 33° NE
Terra 4.0 20:09:04 14° WSW 20:10:08 15° W 20:12:56 10° NW
Cosmos 1867 4.4 20:12:29 37° E 20:12:29 37° E 20:16:36 10° NE
Cosmos 1726 3.2 20:08:18 10° NNW 20:10:52 43° NNW 20:10:52 43° NNW
USA 215 3.2 20:06:10 10° NE 20:12:45 89° NW 20:16:25 29° SW
ADEOS Rocket 3.4 20:18:35 42° E 20:19:41 48° ENE 20:25:22 10° N
Cosmos 2112 Rocket 3.9 20:16:40 10° NNW 20:22:00 76° WSW 20:22:07 75° WSW
Cosmos 2278 Rocket 4.2 20:17:46 10° N 20:22:02 21° NE 20:25:14 14° E
Cosmos 1680 Rocket 3.6 20:17:49 10° NNW 20:23:04 63° WSW 20:23:07 63° WSW
Cosmos 1626 4.4 20:28:53 18° NE 20:28:53 18° NE 20:30:22 10° NE
Cosmos 1842 4.2 20:28:37 46° NNW 20:28:37 46° NNW 20:31:31 10° N
Meteor 1-22 Rocket 4.2 20:21:50 10° N 20:27:49 89° W 20:28:37 69° S
Spot 4 4.0 20:28:07 64° W 20:28:07 64° W 20:32:41 10° NNW
Cosmos 1818 3.4 20:25:59 10° NW 20:31:27 81° WSW 20:31:32 80° SW
Iridium 4 Rocket 4.0 20:29:27 10° NNW 20:33:52 44° W 20:33:58 44° W
Sich 1 Rocket 4.2 20:35:18 10° N 20:39:04 49° NE 20:39:04 49° NE
Cosmos 1674 4.4 20:41:26 28° NE 20:41:26 28° NE 20:43:34 10° NNE
Cosmos 2322 Rocket 4.0 20:36:17 13° WSW 20:40:11 26° NW 20:44:51 10° N
Cosmos 2322 3.6 20:43:35 75° SW 20:44:07 86° WNW 20:49:53 10° NNE
Cosmos 2333 Rocket 2.5 20:43:20 52° WSW 20:44:22 62° WNW 20:50:01 10° NNE
Cosmos 1844 Rocket 3.4 20:41:17 10° NW 20:46:18 39° WSW 20:46:18 39° WSW
USA 267 3.6 20:42:28 22° ESE 20:46:46 61° NE 20:53:12 10° NW
Cosmos 1758 4.4 20:44:27 10° N 20:47:24 42° NNE 20:47:24 42° NNE
SL-08 ROCKET BODY 4.1 20:44:35 10° N 20:50:29 86° W 20:51:01 75° S
Cosmos 1461 3.6 20:54:13 10° NNW 20:57:40 53° N 20:57:40 53° N
ASTEX 1 3.6 20:54:25 10° NNE 20:59:03 62° ENE 20:59:03 62° ENE
Cosmos 1553 Rocket 3.8 20:58:59 68° SSE 20:59:42 77° E 21:05:54 10° N
Cosmos 1244 Rocket 4.3 20:56:21 10° N 21:02:41 82° W 21:03:32 68° SSW
ATLAS CENTAUR R/B 2.5 20:58:20 10° NW 21:01:50 41° WNW 21:01:50 41° WNW
Cosmos 2219 Rocket 2.5 21:03:07 50° W 21:04:02 57° WNW 21:09:34 10° NNE
Nadezhda 2 Rocket 4.3 20:59:16 10° N 21:05:24 75° W 21:06:07 67° SW
Cosmos 1674 Rocket 4.2 21:08:59 51° NE 21:08:59 51° NE 21:12:27 10° NNE
Cosmos 2150 Rocket 4.3 21:11:38 52° E 21:11:38 52° E 21:16:21 10° NNE
Cosmos 2221 Rocket 3.9 21:13:38 62° NNW 21:13:38 62° NNW 21:17:24 10° N
ATLAS 3B R/B 4.3 21:07:39 10° WNW 21:13:03 22° WSW 21:13:24 22° WSW
Meteor 1-16 Rocket 4.5 21:08:40 10° N 21:14:33 63° ENE 21:15:29 55° ESE
Cosmos 494 Rocket 4.0 21:11:30 10° NNW 21:16:36 66° ENE 21:16:51 65° E
Cosmos 1048 Rocket 3.9 21:11:36 10° NNW 21:16:47 73° ENE 21:16:55 73° E
CZ-2D R/B 4.3 21:14:48 10° ENE 21:17:09 13° E 21:18:15 12° ESE
NOSS 3-1 (A) 4.1 21:09:38 10° NW 21:17:17 81° NE 21:21:35 34° SE
NOSS 0 Rocket 3.9 21:17:04 64° SSE 21:17:40 69° ESE 21:23:53 10° NNE
Cosmos 1125 Rocket 3.5 21:23:02 71° E 21:23:02 71° E 21:28:06 10° NNE
Cosmos 1378 Rocket 3.9 21:23:48 65° NNE 21:23:48 65° NNE 21:27:37 10° N
NOSS 3-1 (C) 4.2 21:16:58 10° NW 21:24:35 63° WSW 21:26:41 50° S
CZ-4C R/B 3.0 21:18:44 10° NW 21:26:13 82° WSW 21:29:11 45° SSE
USA 308 3.9 21:29:18 40° ENE 21:29:18 40° ENE 21:32:02 10° NE
Cosmos 2237 Rocket 2.2 21:33:08 64° SE 21:33:26 66° ESE 21:39:06 10° NNE
Cosmos 1300 4.1 21:31:23 10° N 21:34:16 34° NE 21:34:16 34° NE
COSMOS 2428 3.4 21:35:55 38° W 21:37:15 44° WNW 21:42:42 10° NNE
Cosmos 1745 Rocket 3.8 21:33:08 10° N 21:39:23 85° W 21:40:22 65° S
SL-14 R/B 4.1 21:42:36 49° NNE 21:42:36 49° NNE 21:45:31 10° N
Cosmos 1975 Rocket 4.3 21:42:24 33° E 21:42:24 33° E 21:46:21 10° NNE
Resurs 1-4 Rocket 3.7 21:39:39 10° NE 21:43:50 23° E 21:44:51 22° ESE
PSLV R/B 4.4 21:41:53 10° N 21:45:55 42° WNW 21:45:55 42° WNW
Cosmos 1025 Rocket 4.4 21:46:23 28° E 21:46:23 28° E 21:50:06 10° NNE
USA 305 3.4 21:51:03 55° NNW 21:51:03 55° NNW 21:54:52 10° NE
Cosmos 332 Rocket 4.0 21:51:00 60° E 21:51:00 60° E 21:55:36 10° NNE
Cosmos 1943 Rocket 3.9 21:46:14 10° N 21:51:08 29° NE 21:55:59 10° ESE
Okean 2 Rocket 4.4 21:47:26 10° NNW 21:50:44 31° WNW 21:50:44 31° WNW
Cosmos 405 Rocket 4.1 21:53:19 32° NW 21:53:19 32° NW 21:55:55 10° N
Cosmos 2298 Rocket 4.2 21:54:04 57° W 21:54:36 60° WNW 21:59:52 10° NNE
ADEOS II 4.2 21:54:36 10° NE 21:57:50 16° E 21:59:49 14° ESE
Cosmos 1437 Rocket 4.0 21:55:56 10° NNW 21:58:15 33° NW 21:58:15 33° NW
EO 1 Delta rocket 4.0 21:55:41 10° NNE 22:00:25 74° E 22:00:57 66° SE
Cosmos 883 Rocket 4.4 21:59:27 59° SSW 22:00:47 85° W 22:07:10 10° N
Lacrosse 5 rocket 3.1 22:03:36 21° E 22:03:36 21° E 22:05:30 10° ENE
Cosmos 1626 4.3 22:03:15 18° NW 22:03:15 18° NW 22:05:09 10° NNW
Thor Agena Rocket 3.6 21:57:10 10° NNE 22:02:27 65° ESE 22:03:08 59° SE
GP-B 3.1 22:00:15 10° N 22:04:38 74° E 22:04:38 74° E
ATLAS 5 CENTAUR R/B 2.5 21:55:51 10° NW 22:05:22 63° WSW 22:05:22 63° WSW
ADEOS Rocket 4.2 22:05:31 23° W 22:05:33 23° W 22:10:09 10° NW
Cosmos 2278 Rocket 2.1 22:00:59 10° NNW 22:06:37 66° WSW 22:07:02 63° SW
Cosmos 839 Rocket 4.2 22:01:16 10° NW 22:07:45 81° WSW 22:10:59 37° SSE
Cosmos 1953 3.5 22:06:23 10° NNW 22:09:10 35° NW 22:09:10 35° NW
SL-16 R/B 3.4 22:15:43 17° SE 22:20:15 46° ENE 22:26:09 10° N
SL-16 R/B 2.6 22:20:27 45° SSE 22:21:37 53° ESE 22:27:09 10° NNE
USA 32 4.2 22:21:56 52° WSW 22:22:31 56° W 22:27:41 10° N
Cosmos 1980 4.3 22:24:18 37° W 22:25:48 46° WNW 22:31:14 10° NNE
Okean 1 Rocket 4.4 22:23:59 10° NNW 22:27:12 28° WNW 22:27:12 28° WNW
Lacrosse 5 1.7 22:27:49 68° SSW 22:28:27 80° SE 22:33:34 10° NE
Cosmos 371 Rocket 4.5 22:28:14 29° W 22:29:06 31° WNW 22:33:25 10° N
USA 267 3.6 22:29:45 42° SW 22:29:54 42° SW 22:36:03 10° WNW
USA 306 4.3 22:31:30 25° WNW 22:32:59 32° NNW 22:36:46 10° NE
Cosmos 1709 Rocket 4.2 22:27:43 10° NNW 22:33:37 52° W 22:34:54 45° SW
Meteor 2-10 Rocket 3.7 22:29:19 10° NNW 22:34:51 60° W 22:35:45 53° SW
Cosmos 2315 Rocket 4.3 22:33:42 42° SW 22:35:27 55° WNW 22:41:44 10° N
USA 307 4.2 22:35:30 27° WNW 22:36:56 34° NNW 22:40:47 10° NE
Cosmos 1269 Rocket 4.0 22:32:38 10° NNW 22:37:57 82° ENE 22:39:53 40° SSE
USA 229 DEB 4.3 22:34:24 10° NW 22:41:25 44° WSW 22:43:19 38° SSW
USA 229 4.3 22:34:30 10° NW 22:41:32 44° WSW 22:43:27 38° SSW
Cosmos 2184 Rocket 4.2 22:35:51 10° N 22:42:04 65° E 22:45:38 26° SSE
Cosmos 2084 Rocket 3.6 22:43:12 50° WNW 22:43:18 50° NW 22:47:01 10° NNE
COSMOS 2455 3.4 22:42:28 35° SSE 22:44:30 49° ESE 22:50:17 10° NE
Meteor 1-24 Rocket 3.6 22:43:16 49° SSW 22:44:51 86° W 22:50:21 10° N
AQUA 4.4 22:41:07 10° NNE 22:45:46 51° E 22:47:12 37° SSE
MOZ.5/SAFIR/RUBIN 5/SL-8 4.4 22:56:16 38° W 22:56:23 38° W 23:00:49 10° NNW
CZ-2D R/B 2.1 22:52:27 10° NNE 22:57:49 79° WNW 22:59:34 44° SSW
Cosmos 1455 2.1 22:54:54 10° N 22:58:36 75° E 22:59:06 62° SE
SME Rocket 3.7 23:05:13 37° W 23:05:13 37° W 23:09:38 10° NNW
Cosmos 1455 Rocket 3.9 23:01:14 10° NNW 23:05:17 34° W 23:05:22 34° W
Cosmos 1271 Rocket 3.6 23:02:20 10° N 23:06:04 47° ENE 23:07:58 25° SE
Meteor 2-5 Rocket 4.2 23:07:46 34° WSW 23:09:40 46° WNW 23:15:08 10° N
Cosmos 292 Rocket 3.9 23:08:29 39° S 23:10:10 70° ESE 23:14:57 10° NNE
CRYOSAT 2 4.3 23:09:02 34° S 23:11:10 88° E 23:16:05 10° N
Cosmos 1536 Rocket 3.5 23:10:57 45° S 23:12:17 88° E 23:16:42 10° N
Nadezhda 1 Rocket 4.0 23:10:37 28° S 23:14:10 84° E 23:20:29 10° N
CZ-4C R/B 4.4 23:09:00 10° WNW 23:14:13 19° WSW 23:14:17 19° WSW
Cosmos 1943 4.2 23:12:32 20° SSE 23:15:54 38° ESE 23:21:07 10° NE
Cosmos 2237 Rocket 4.0 23:14:56 14° W 23:18:01 21° NW 23:22:18 10° N
SAR-Lupe-2 3.6 23:19:49 10° N 23:23:22 61° WNW 23:23:59 51° WSW
Resurs 1-4 Rocket 2.6 23:18:50 10° N 23:23:49 45° WNW 23:25:56 30° WSW
Cosmos 1025 Rocket 4.4 23:23:15 23° W 23:23:57 23° WNW 23:27:27 10° NNW
YAOGAN 11 4.3 23:32:10 34° SSW 23:33:46 52° W 23:38:10 10° NNW
Cosmos 1943 Rocket 2.5 23:29:40 10° NW 23:35:03 45° WSW 23:37:57 25° SSW
Helios 1B rocket 4.2 23:32:55 10° NE 23:36:23 27° E 23:39:50 10° SSE
Cosmos 1606 Rocket 4.3 23:32:53 10° N 23:37:12 52° E 23:41:27 10° SSE
IDEFIX/ARIANE 42P 2.6 23:31:58 10° N 23:37:15 78° WNW 23:40:17 26° SSW
ADEOS II 2.2 23:32:44 10° N 23:37:57 63° WNW 23:40:44 27° SW
UNK 4.1 23:37:16 31° SW 23:38:50 43° W 23:43:14 10° NNW
Cosmos 2297 3.9 23:34:54 10° NNW 23:40:29 53° WSW 23:44:54 16° S
Lacrosse 5 rocket 2.3 23:39:06 22° W 23:41:01 37° NW 23:44:50 10° NNE
Cosmos 614 Rocket 4.0 23:36:36 10° NNW 23:41:44 61° WSW 23:45:49 16° S
GPS 2-04 Rocket1 4.3 23:42:57 16° SSE 23:42:57 16° SSE 23:44:52 10° ESE
Cosmos 2341 Rocket 4.3 23:40:01 10° N 23:46:24 70° E 23:52:46 10° SSE
Cosmos 2154 Rocket 4.2 23:42:19 10° NNW 23:48:29 54° W 23:52:57 19° SSW
COSMOS 2441 4.4 23:44:36 10° NNE 23:49:30 85° ESE 23:52:54 20° SSW
IRS-1D 3.6 23:44:39 10° NNE 23:50:02 83° ESE 23:54:01 18° S
Helios 1A 3.1 23:48:44 24° SSW 23:51:00 53° W 23:55:09 10° NNW
Cosmos 1703 3.6 23:49:26 30° SW 23:51:01 50° W 23:54:52 10° N
Cosmos 2251 Rocket 3.4 23:46:51 10° NNW 23:52:08 83° WSW 23:57:25 10° SSE
MOS 1 Rocket 3.9 23:53:59 25° SW 23:55:21 31° W 23:59:11 10° NNW
